| time (UTC) | temp F | wind direction | speed MPH | gust MPH | rain 1hr in | rain 24hr in | rain mn in | humidity % | barometer mb |
| 20260906073016 | 77 | 30 | 2.0 | 7.0 | 0.00 | 0.00 | 0.00 | 61 | 1022.4 |
| 20260906072513 | 77 | 28 | 0.0 | 0.0 | 0.00 | 0.00 | 0.00 | 62 | 1022.3 |
| 20260906072153 | 76 | 66 | 0.0 | 0.0 | 0.00 | 0.00 | 0.00 | 64 | 1022.1 |
| 20260906072035 | 76 | 34 | 0.0 | 0.0 | 0.00 | 0.00 | 0.00 | 63 | 1022.2 |
| 20260906070959 | 76 | 73 | 0.0 | 0.0 | 0.00 | 0.00 | 0.00 | 64 | 1022.1 |
| 20260906070455 | 75 | 109 | 0.0 | 0.0 | 0.00 | 0.00 | 0.00 | 66 | 1022.0 |
| 20260906065953 | 75 | 99 | 0.0 | 0.0 | 0.00 | 0.00 | 0.00 | 67 | 1022.0 |
| 20260906065452 | 74 | 82 | 0.0 | 0.0 | 0.00 | 0.00 | 0.00 | 67 | 1022.0 |
| 20260906064951 | 74 | 55 | 0.0 | 7.0 | 0.00 | 0.00 | 0.00 | 68 | 1022.0 |
| 20260906064449 | 74 | 87 | 0.0 | 7.0 | 0.00 | 0.00 | 0.00 | 67 | 1022.0 |
| 20260906064151 | 74 | 75 | 0.0 | 0.0 | 0.00 | 0.00 | 0.00 | 68 | 1021.9 |
| 20260906064011 | 74 | 100 | 0.0 | 0.0 | 0.00 | 0.00 | 0.00 | 67 | 1021.9 |
| 20260906062947 | 74 | 37 | 0.0 | 6.0 | 0.00 | 0.00 | 0.00 | 67 | 1021.8 |
| 20260906062632 | 73 | 32 | 1.0 | 7.0 | 0.00 | 0.00 | 0.00 | 69 | 1021.8 |
| 20260906062512 | 73 | 52 | 0.0 | 7.0 | 0.00 | 0.00 | 0.00 | 68 | 1021.8 |
| 20260906061447 | 73 | 66 | 0.0 | 7.0 | 0.00 | 0.00 | 0.00 | 69 | 1021.7 |
| 20260906060943 | 73 | 79 | 2.0 | 7.0 | 0.00 | 0.00 | 0.00 | 69 | 1021.8 |
| 20260906060442 | 72 | 65 | 0.0 | 9.0 | 0.00 | 0.00 | 0.00 | 70 | 1021.7 |
| 20260906055945 | 72 | 61 | 3.0 | 9.0 | 0.00 | 0.00 | 0.00 | 70 | 1021.6 |
| 20260906055447 | 73 | 61 | 5.0 | 9.0 | 0.00 | 0.00 | 0.00 | 69 | 1021.5 |
| 20260906054944 | 73 | 61 | 5.0 | 9.0 | 0.00 | 0.00 | 0.00 | 68 | 1021.5 |
| 20260906054442 | 73 | 82 | 4.0 | 5.0 | 0.00 | 0.00 | 0.00 | 68 | 1021.5 |
| 20260906053943 | 73 | 52 | 3.0 | 4.0 | 0.00 | 0.00 | 0.00 | 68 | 1021.4 |
| 20260906053442 | 73 | 54 | 2.0 | 6.0 | 0.00 | 0.00 | 0.00 | 68 | 1021.4 |
| 20260906052942 | 73 | 55 | 4.0 | 7.0 | 0.00 | 0.00 | 0.00 | 68 | 1021.2 |
| 20260906052440 | 73 | 51 | 4.0 | 7.0 | 0.00 | 0.00 | 0.00 | 68 | 1021.2 |
| 20260906051938 | 73 | 48 | 3.0 | 5.0 | 0.00 | 0.00 | 0.00 | 68 | 1021.2 |
| 20260906051639 | 72 | 17 | 2.0 | 6.0 | 0.00 | 0.00 | 0.00 | 69 | 1021.0 |
| 20260906051503 | 73 | 16 | 2.0 | 4.0 | 0.00 | 0.00 | 0.00 | 68 | 1021.1 |
| 20260906050435 | 72 | 8 | 3.0 | 6.0 | 0.00 | 0.00 | 0.00 | 69 | 1021.1 |
| 20260906050047 | 72 | 39 | 3.0 | 5.0 | 0.00 | 0.00 | 0.00 | 69 | 1021.0 |
| 20260906050025 | 72 | 49 | 0.0 | 5.0 | 0.00 | 0.00 | 0.00 | 69 | 1020.9 |
| 20260906045936 | 72 | 52 | 3.0 | 6.0 | 0.00 | 0.00 | 0.00 | 69 | 1021.0 |
| 20260906045619 | 72 | 31 | 4.0 | 9.0 | 0.00 | 0.00 | 0.00 | 69 | 1021.0 |
| 20260906045254 | 72 | 52 | 3.0 | 5.0 | 0.00 | 0.00 | 0.00 | 69 | 1020.9 |
| 20260906045040 | 72 | 37 | 5.0 | 9.0 | 0.00 | 0.00 | 0.00 | 69 | 1021.0 |
| 20260906042932 | 72 | 30 | 4.0 | 5.0 | 0.00 | 0.00 | 0.00 | 69 | 1020.8 |
| 20260906042841 | 73 | 71 | 4.0 | 7.0 | 0.00 | 0.00 | 0.00 | 68 | 1020.7 |
| 20260906042552 | 72 | 56 | 3.0 | 5.0 | 0.00 | 0.00 | 0.00 | 69 | 1020.8 |
| 20260906042150 | 73 | 0 | 4.0 | 5.0 | 0.00 | 0.00 | 0.00 | 69 | 1020.7 |
| 20260906042009 | 73 | 62 | 4.0 | 7.0 | 0.00 | 0.00 | 0.00 | 68 | 1020.8 |
| 20260906040721 | 72 | 0 | 4.0 | 7.0 | 0.00 | 0.00 | 0.00 | 70 | 1020.6 |
| 20260906040709 | 72 | 34 | 3.0 | 6.0 | 0.00 | 0.00 | 0.00 | 71 | 1020.7 |
| 20260906040511 | 72 | 25 | 3.0 | 7.0 | 0.00 | 0.00 | 0.00 | 69 | 1020.6 |
| 20260906034934 | 72 | 13 | 3.0 | 6.0 | 0.00 | 0.00 | 0.00 | 71 | 1020.7 |
| 20260906034712 | 70 | 59 | 2.0 | 5.0 | 0.00 | 0.00 | 0.00 | 73 | 1020.5 |
| 20260906034707 | 70 | 75 | 3.0 | 5.0 | 0.00 | 0.00 | 0.00 | 73 | 1020.6 |
| 20260906034510 | 71 | 337 | 3.0 | 5.0 | 0.00 | 0.00 | 0.00 | 72 | 1020.5 |
| 20260906033156 | 71 | 87 | 3.0 | 6.0 | 0.00 | 0.00 | 0.00 | 72 | 1020.5 |
| 20260906033138 | 72 | 99 | 3.0 | 6.0 | 0.00 | 0.00 | 0.00 | 71 | 1020.5 |
| 20260906032956 | 71 | 80 | 3.0 | 5.0 | 0.00 | 0.00 | 0.00 | 73 | 1020.5 |
| 20260906031421 | 72 | 80 | 2.0 | 5.0 | 0.00 | 0.00 | 0.00 | 71 | 1020.3 |
| 20260906030921 | 72 | 87 | 2.0 | 9.0 | 0.00 | 0.00 | 0.00 | 71 | 1020.3 |
| 20260906030420 | 71 | 45 | 4.0 | 9.0 | 0.00 | 0.00 | 0.00 | 72 | 1020.2 |
| 20260906025922 | 71 | 30 | 4.0 | 6.0 | 0.00 | 0.00 | 0.00 | 73 | 1020.3 |
| 20260906025421 | 71 | 39 | 3.0 | 4.0 | 0.00 | 0.00 | 0.00 | 73 | 1020.2 |
| 20260906024919 | 71 | 66 | 3.0 | 5.0 | 0.00 | 0.00 | 0.00 | 73 | 1020.1 |
| 20260906024612 | 71 | 69 | 3.0 | 5.0 | 0.00 | 0.00 | 0.00 | 73 | 1020.1 |
| 20260906024444 | 71 | 72 | 3.0 | 5.0 | 0.00 | 0.00 | 0.00 | 73 | 1020.2 |
| 20260906023414 | 71 | 63 | 3.0 | 5.0 | 0.00 | 0.00 | 0.00 | 73 | 1020.2 |
| 20260906022917 | 71 | 49 | 3.0 | 6.0 | 0.00 | 0.00 | 0.00 | 73 | 1020.2 |
| 20260906022412 | 71 | 51 | 3.0 | 6.0 | 0.00 | 0.00 | 0.00 | 73 | 1020.2 |
| 20260906021914 | 71 | 54 | 3.0 | 6.0 | 0.00 | 0.00 | 0.00 | 73 | 1020.1 |
| 20260906021411 | 71 | 44 | 2.0 | 6.0 | 0.00 | 0.00 | 0.00 | 73 | 1020.0 |
| 20260906020911 | 71 | 69 | 3.0 | 6.0 | 0.00 | 0.00 | 0.00 | 73 | 1020.0 |
| 20260906020412 | 71 | 72 | 3.0 | 6.0 | 0.00 | 0.00 | 0.00 | 73 | 1020.0 |
| 20260906015915 | 71 | 76 | 3.0 | 6.0 | 0.00 | 0.00 | 0.00 | 73 | 1019.9 |
| 20260906015409 | 71 | 65 | 2.0 | 5.0 | 0.00 | 0.00 | 0.00 | 73 | 1019.9 |
| 20260906014909 | 71 | 69 | 3.0 | 6.0 | 0.00 | 0.00 | 0.00 | 73 | 1019.9 |
| 20260906014409 | 71 | 78 | 4.0 | 6.0 | 0.00 | 0.00 | 0.00 | 73 | 1019.9 |
| 20260906013904 | 71 | 80 | 3.0 | 5.0 | 0.00 | 0.00 | 0.00 | 73 | 1019.9 |
| 20260906013542 | 72 | 62 | 3.0 | 5.0 | 0.00 | 0.00 | 0.00 | 73 | 1020.0 |
| 20260906013426 | 71 | 75 | 3.0 | 5.0 | 0.00 | 0.00 | 0.00 | 73 | 1019.9 |
| 20260906012720 | 71 | 75 | 3.0 | 6.0 | 0.00 | 0.00 | 0.00 | 73 | 1020.0 |
| 20260906012652 | 71 | 78 | 4.0 | 6.0 | 0.00 | 0.00 | 0.00 | 73 | 1019.8 |
| 20260906012446 | 72 | 58 | 3.0 | 5.0 | 0.00 | 0.00 | 0.00 | 73 | 1019.9 |
| 20260906011101 | 71 | 63 | 3.0 | 7.0 | 0.00 | 0.00 | 0.00 | 73 | 1019.9 |
| 20260906010924 | 71 | 76 | 0.0 | 6.0 | 0.00 | 0.00 | 0.00 | 73 | 1019.9 |
| 20260906005851 | 72 | 78 | 4.0 | 7.0 | 0.00 | 0.00 | 0.00 | 73 | 1019.9 |
| 20260906005349 | 72 | 72 | 0.0 | 5.0 | 0.00 | 0.00 | 0.00 | 73 | 1019.9 |
| 20260906004849 | 72 | 63 | 1.0 | 5.0 | 0.00 | 0.00 | 0.00 | 73 | 1019.8 |
| 20260906004347 | 72 | 58 | 3.0 | 5.0 | 0.00 | 0.00 | 0.00 | 73 | 1019.8 |
| 20260906003847 | 72 | 65 | 3.0 | 5.0 | 0.00 | 0.00 | 0.00 | 73 | 1019.8 |
| 20260906003344 | 72 | 72 | 4.0 | 5.0 | 0.00 | 0.00 | 0.00 | 73 | 1019.8 |
| 20260906002843 | 73 | 79 | 0.0 | 2.0 | 0.00 | 0.00 | 0.00 | 72 | 1019.8 |
| 20260906002344 | 73 | 65 | 0.0 | 0.0 | 0.00 | 0.00 | 0.00 | 71 | 1019.8 |
| 20260906002031 | 73 | 8 | 0.0 | 3.0 | 0.00 | 0.00 | 0.00 | 71 | 1019.8 |
| 20260906001910 | 73 | 8 | 0.0 | 0.0 | 0.00 | 0.00 | 0.00 | 71 | 1019.8 |
| 20260906000839 | 73 | 8 | 0.0 | 3.0 | 0.00 | 0.00 | 0.00 | 71 | 1019.8 |
| 20260906000333 | 73 | 8 | 0.0 | 3.0 | 0.00 | 0.00 | 0.00 | 71 | 1019.7 |
| 20260905235832 | 73 | 10 | 2.0 | 5.0 | 0.00 | 0.00 | 0.00 | 72 | 1019.8 |
| 20260905235330 | 73 | 28 | 1.0 | 5.0 | 0.00 | 0.00 | 0.00 | 72 | 1019.8 |
| 20260905234830 | 73 | 0 | 1.0 | 3.0 | 0.00 | 0.00 | 0.00 | 72 | 1019.8 |
| 20260905234328 | 73 | 0 | 1.0 | 3.0 | 0.00 | 0.00 | 0.00 | 72 | 1019.8 |
| 20260905233831 | 73 | 0 | 0.0 | 0.0 | 0.00 | 0.00 | 0.00 | 72 | 1019.7 |
| 20260905233649 | 74 | 0 | 1.0 | 2.0 | 0.00 | 0.00 | 0.00 | 71 | 1019.7 |
| 20260905233418 | 73 | 0 | 0.0 | 0.0 | 0.00 | 0.00 | 0.00 | 71 | 1019.7 |
| 20260905232844 | 74 | 0 | 0.0 | 2.0 | 0.00 | 0.00 | 0.00 | 71 | 1019.8 |
| 20260905231824 | 73 | 7 | 0.0 | 0.0 | 0.00 | 0.00 | 0.00 | 72 | 1019.7 |
| 20260905231325 | 73 | 7 | 0.0 | 0.0 | 0.00 | 0.00 | 0.00 | 72 | 1019.7 |
| 20260905230824 | 73 | 7 | 0.0 | 0.0 | 0.00 | 0.00 | 0.00 | 72 | 1019.7 |
| 20260905230727 | 73 | 34 | 0.0 | 0.0 | 0.00 | 0.00 | 0.00 | 72 | 1019.7 |
| 20260905230709 | 74 | 34 | 0.0 | 0.0 | 0.00 | 0.00 | 0.00 | 71 | 1019.6 |
| 20260905230703 | 74 | 38 | 0.0 | 0.0 | 0.00 | 0.00 | 0.00 | 71 | 1019.5 |
| 20260905225605 | 74 | 34 | 0.0 | 0.0 | 0.00 | 0.00 | 0.00 | 72 | 1019.7 |
| 20260905224507 | 74 | 34 | 0.0 | 0.0 | 0.00 | 0.00 | 0.00 | 71 | 1019.5 |
| 20260905223439 | 74 | 38 | 0.0 | 3.0 | 0.00 | 0.00 | 0.00 | 71 | 1019.4 |
| 20260905222936 | 74 | 42 | 0.0 | 3.0 | 0.00 | 0.00 | 0.00 | 71 | 1019.3 |
| 20260905222434 | 74 | 44 | 0.0 | 0.0 | 0.00 | 0.00 | 0.00 | 71 | 1019.3 |
| 20260905221935 | 74 | 17 | 0.0 | 0.0 | 0.00 | 0.00 | 0.00 | 71 | 1019.3 |
| 20260905221433 | 74 | 13 | 0.0 | 0.0 | 0.00 | 0.00 | 0.00 | 71 | 1019.4 |
| 20260905220927 | 74 | 18 | 0.0 | 0.0 | 0.00 | 0.00 | 0.00 | 71 | 1019.2 |
| 20260905220424 | 74 | 20 | 0.0 | 0.0 | 0.00 | 0.00 | 0.00 | 70 | 1019.3 |
| 20260905215925 | 74 | 20 | 0.0 | 0.0 | 0.00 | 0.00 | 0.00 | 70 | 1019.1 |
| 20260905215422 | 74 | 20 | 0.0 | 0.0 | 0.00 | 0.00 | 0.00 | 70 | 1019.1 |
| 20260905214923 | 74 | 20 | 0.0 | 0.0 | 0.00 | 0.00 | 0.00 | 69 | 1019.1 |
| 20260905214424 | 74 | 20 | 0.0 | 0.0 | 0.00 | 0.00 | 0.00 | 69 | 1019.1 |
| 20260905213922 | 74 | 20 | 0.0 | 0.0 | 0.00 | 0.00 | 0.00 | 68 | 1019.1 |
| 20260905213730 | 75 | 20 | 0.0 | 0.0 | 0.00 | 0.00 | 0.00 | 67 | 1019.0 |
| 20260905213705 | 75 | 18 | 0.0 | 0.0 | 0.00 | 0.00 | 0.00 | 67 | 1018.9 |
| 20260905213500 | 74 | 20 | 0.0 | 0.0 | 0.00 | 0.00 | 0.00 | 68 | 1019.0 |
| 20260905211917 | 75 | 18 | 0.0 | 0.0 | 0.00 | 0.00 | 0.00 | 67 | 1019.0 |
| 20260905211415 | 75 | 23 | 0.0 | 0.0 | 0.00 | 0.00 | 0.00 | 67 | 1019.0 |
| 20260905210913 | 75 | 23 | 0.0 | 0.0 | 0.00 | 0.00 | 0.00 | 67 | 1019.0 |
| 20260905210558 | 75 | 23 | 0.0 | 0.0 | 0.00 | 0.00 | 0.00 | 67 | 1019.0 |
| 20260905210432 | 75 | 23 | 0.0 | 0.0 | 0.00 | 0.00 | 0.00 | 67 | 1019.0 |
| 20260905205408 | 75 | 23 | 0.0 | 0.0 | 0.00 | 0.00 | 0.00 | 66 | 1019.0 |
| 20260905204905 | 75 | 23 | 0.0 | 0.0 | 0.00 | 0.00 | 0.00 | 66 | 1018.9 |
| 20260905204406 | 75 | 23 | 0.0 | 0.0 | 0.00 | 0.00 | 0.00 | 67 | 1018.9 |
| 20260905203903 | 75 | 21 | 0.0 | 2.0 | 0.00 | 0.00 | 0.00 | 67 | 1018.9 |
| 20260905203403 | 75 | 38 | 0.0 | 2.0 | 0.00 | 0.00 | 0.00 | 67 | 1018.9 |
| 20260905202904 | 75 | 38 | 0.0 | 0.0 | 0.00 | 0.00 | 0.00 | 67 | 1018.9 |
| 20260905202400 | 75 | 38 | 0.0 | 0.0 | 0.00 | 0.00 | 0.00 | 67 | 1019.0 |
| 20260905201901 | 75 | 38 | 0.0 | 0.0 | 0.00 | 0.00 | 0.00 | 67 | 1018.9 |
| 20260905201355 | 76 | 38 | 0.0 | 0.0 | 0.00 | 0.00 | 0.00 | 66 | 1018.8 |
| 20260905200856 | 76 | 38 | 0.0 | 0.0 | 0.00 | 0.00 | 0.00 | 65 | 1018.8 |
| 20260905200355 | 76 | 38 | 0.0 | 3.0 | 0.00 | 0.00 | 0.00 | 65 | 1018.7 |
| 20260905195856 | 76 | 38 | 0.0 | 3.0 | 0.00 | 0.00 | 0.00 | 65 | 1018.7 |
| 20260905195353 | 76 | 38 | 0.0 | 3.0 | 0.00 | 0.00 | 0.00 | 67 | 1018.7 |
| 20260905194853 | 76 | 155 | 0.0 | 0.0 | 0.00 | 0.00 | 0.00 | 68 | 1018.7 |
| 20260905194530 | 76 | 155 | 0.0 | 0.0 | 0.00 | 0.00 | 0.00 | 68 | 1018.6 |
| 20260905194414 | 76 | 155 | 0.0 | 0.0 | 0.00 | 0.00 | 0.00 | 68 | 1018.5 |
| 20260905193345 | 76 | 155 | 0.0 | 0.0 | 0.00 | 0.00 | 0.00 | 69 | 1018.6 |
| 20260905192840 | 76 | 155 | 0.0 | 0.0 | 0.00 | 0.00 | 0.00 | 69 | 1018.4 |
| 20260905192338 | 76 | 155 | 0.0 | 0.0 | 0.00 | 0.00 | 0.00 | 69 | 1018.4 |
| 20260905191838 | 76 | 155 | 0.0 | 0.0 | 0.00 | 0.00 | 0.00 | 69 | 1018.2 |
| 20260905191334 | 76 | 155 | 0.0 | 0.0 | 0.00 | 0.00 | 0.00 | 69 | 1018.2 |
| 20260905190833 | 77 | 80 | 0.0 | 0.0 | 0.00 | 0.00 | 0.00 | 68 | 1018.1 |
| 20260905190459 | 78 | 80 | 0.0 | 0.0 | 0.00 | 0.00 | 0.00 | 65 | 1018.2 |
| 20260905190356 | 77 | 80 | 0.0 | 0.0 | 0.00 | 0.00 | 0.00 | 67 | 1018.1 |
| 20260905185328 | 79 | 80 | 0.0 | 0.0 | 0.00 | 0.00 | 0.00 | 63 | 1018.1 |
| 20260905184825 | 79 | 80 | 0.0 | 0.0 | 0.00 | 0.00 | 0.00 | 62 | 1018.1 |
| 20260905184325 | 79 | 80 | 0.0 | 6.0 | 0.00 | 0.00 | 0.00 | 62 | 1018.0 |
| 20260905184143 | 79 | 183 | 0.0 | 0.0 | 0.00 | 0.00 | 0.00 | 62 | 1017.5 |
| 20260905183912 | 79 | 80 | 0.0 | 6.0 | 0.00 | 0.00 | 0.00 | 63 | 1017.8 |
| 20260905183340 | 79 | 85 | 0.0 | 6.0 | 0.00 | 0.00 | 0.00 | 63 | 1017.7 |
| 20260905182441 | 80 | 183 | 0.0 | 0.0 | 0.00 | 0.00 | 0.00 | 60 | 1017.2 |
| 20260905182334 | 80 | 183 | 0.0 | 0.0 | 0.00 | 0.00 | 0.00 | 61 | 1017.5 |
| 20260905181322 | 80 | 183 | 0.0 | 0.0 | 0.00 | 0.00 | 0.00 | 59 | 1017.2 |
| 20260905180958 | 81 | 183 | 0.0 | 0.0 | 0.00 | 0.00 | 0.00 | 58 | 1017.0 |
| 20260905180842 | 81 | 183 | 0.0 | 0.0 | 0.00 | 0.00 | 0.00 | 60 | 1017.1 |
| 20260905175819 | 81 | 183 | 0.0 | 0.0 | 0.00 | 0.00 | 0.00 | 58 | 1017.0 |
| 20260905175748 | 82 | 183 | 0.0 | 0.0 | 0.00 | 0.00 | 0.00 | 54 | 1016.6 |
| 20260905175729 | 82 | 183 | 0.0 | 0.0 | 0.00 | 0.00 | 0.00 | 55 | 1016.8 |
| 20260905175716 | 82 | 183 | 0.0 | 0.0 | 0.00 | 0.00 | 0.00 | 55 | 1016.7 |
| 20260905175435 | 82 | 183 | 0.0 | 0.0 | 0.00 | 0.00 | 0.00 | 55 | 1016.8 |
| 20260905174348 | 82 | 183 | 0.0 | 0.0 | 0.00 | 0.00 | 0.00 | 55 | 1016.7 |
| 20260905173237 | 83 | 183 | 0.0 | 0.0 | 0.00 | 0.00 | 0.00 | 53 | 1016.3 |
| 20260905173203 | 83 | 183 | 0.0 | 0.0 | 0.00 | 0.00 | 0.00 | 54 | 1016.4 |
| 20260905172915 | 83 | 183 | 0.0 | 0.0 | 0.00 | 0.00 | 0.00 | 52 | 1016.6 |
| 20260905171828 | 83 | 183 | 0.0 | 0.0 | 0.00 | 0.00 | 0.00 | 52 | 1016.4 |
| 20260905170804 | 83 | 183 | 0.0 | 0.0 | 0.00 | 0.00 | 0.00 | 53 | 1016.3 |
| 20260905170301 | 83 | 176 | 0.0 | 0.0 | 0.00 | 0.00 | 0.00 | 54 | 1016.3 |
| 20260905165755 | 84 | 176 | 0.0 | 0.0 | 0.00 | 0.00 | 0.00 | 54 | 1016.3 |
| 20260905165255 | 84 | 176 | 0.0 | 0.0 | 0.00 | 0.00 | 0.00 | 55 | 1016.2 |
| 20260905164754 | 85 | 176 | 0.0 | 0.0 | 0.00 | 0.00 | 0.00 | 51 | 1016.2 |
| 20260905164255 | 86 | 175 | 0.0 | 0.0 | 0.00 | 0.00 | 0.00 | 49 | 1016.2 |
| 20260905163753 | 87 | 172 | 0.0 | 0.0 | 0.00 | 0.00 | 0.00 | 49 | 1016.1 |
| 20260905163250 | 87 | 172 | 0.0 | 0.0 | 0.00 | 0.00 | 0.00 | 47 | 1016.1 |
| 20260905162944 | 87 | 157 | 0.0 | 0.0 | 0.00 | 0.00 | 0.00 | 43 | 1015.9 |
| 20260905162815 | 87 | 157 | 0.0 | 0.0 | 0.00 | 0.00 | 0.00 | 44 | 1016.1 |
| 20260905161744 | 87 | 157 | 0.0 | 0.0 | 0.00 | 0.00 | 0.00 | 43 | 1015.8 |
| 20260905161244 | 87 | 157 | 0.0 | 0.0 | 0.00 | 0.00 | 0.00 | 42 | 1015.9 |
| 20260905160742 | 87 | 157 | 0.0 | 0.0 | 0.00 | 0.00 | 0.00 | 43 | 1015.8 |
| 20260905160240 | 87 | 157 | 0.0 | 0.0 | 0.00 | 0.00 | 0.00 | 43 | 1015.8 |
| 20260905155738 | 87 | 157 | 0.0 | 0.0 | 0.00 | 0.00 | 0.00 | 43 | 1015.8 |
| 20260905155237 | 87 | 157 | 0.0 | 0.0 | 0.00 | 0.00 | 0.00 | 42 | 1015.8 |
| 20260905154735 | 87 | 157 | 0.0 | 0.0 | 0.00 | 0.00 | 0.00 | 42 | 1015.8 |
| 20260905154238 | 87 | 157 | 0.0 | 0.0 | 0.00 | 0.00 | 0.00 | 42 | 1015.8 |
| 20260905153734 | 87 | 157 | 0.0 | 0.0 | 0.00 | 0.00 | 0.00 | 41 | 1015.8 |
| 20260905153233 | 87 | 157 | 0.0 | 0.0 | 0.00 | 0.00 | 0.00 | 41 | 1015.7 |
| 20260905152736 | 88 | 157 | 0.0 | 0.0 | 0.00 | 0.00 | 0.00 | 42 | 1015.7 |
| 20260905152233 | 87 | 157 | 0.0 | 0.0 | 0.00 | 0.00 | 0.00 | 41 | 1015.6 |
| 20260905151735 | 88 | 161 | 0.0 | 0.0 | 0.00 | 0.00 | 0.00 | 40 | 1015.6 |
| 20260905151234 | 88 | 166 | 0.0 | 0.0 | 0.00 | 0.00 | 0.00 | 42 | 1015.7 |
| 20260905150733 | 88 | 161 | 0.0 | 0.0 | 0.00 | 0.00 | 0.00 | 40 | 1015.7 |
| 20260905150234 | 88 | 161 | 0.0 | 0.0 | 0.00 | 0.00 | 0.00 | 40 | 1015.7 |
| 20260905150128 | 87 | 96 | 0.0 | 0.0 | 0.00 | 0.00 | 0.00 | 41 | 1015.7 |
| 20260905150112 | 87 | 261 | 0.0 | 0.0 | 0.00 | 0.00 | 0.00 | 41 | 1015.7 |
| 20260905145833 | 88 | 261 | 0.0 | 0.0 | 0.00 | 0.00 | 0.00 | 40 | 1015.7 |
| 20260905144743 | 87 | 96 | 0.0 | 0.0 | 0.00 | 0.00 | 0.00 | 41 | 1015.7 |
| 20260905143717 | 87 | 96 | 0.0 | 0.0 | 0.00 | 0.00 | 0.00 | 41 | 1015.7 |
| 20260905142821 | 86 | 96 | 0.0 | 0.0 | 0.00 | 0.00 | 0.00 | 41 | 1015.8 |
| 20260905142321 | 86 | 96 | 0.0 | 0.0 | 0.00 | 0.00 | 0.00 | 42 | 1015.8 |
| 20260905141818 | 86 | 97 | 0.0 | 0.0 | 0.00 | 0.00 | 0.00 | 41 | 1015.8 |
| 20260905141313 | 85 | 97 | 0.0 | 0.0 | 0.00 | 0.00 | 0.00 | 42 | 1015.7 |
| 20260905140814 | 85 | 102 | 0.0 | 0.0 | 0.00 | 0.00 | 0.00 | 41 | 1015.7 |
| 20260905140311 | 86 | 99 | 0.0 | 0.0 | 0.00 | 0.00 | 0.00 | 42 | 1015.7 |
| 20260905135813 | 86 | 93 | 0.0 | 0.0 | 0.00 | 0.00 | 0.00 | 40 | 1015.8 |
| 20260905135311 | 87 | 140 | 0.0 | 0.0 | 0.00 | 0.00 | 0.00 | 39 | 1015.9 |
| 20260905134805 | 87 | 158 | 0.0 | 0.0 | 0.00 | 0.00 | 0.00 | 40 | 1016.0 |
| 20260905134557 | 86 | 73 | 0.0 | 0.0 | 0.00 | 0.00 | 0.00 | 41 | 1015.9 |
| 20260905134359 | 86 | 85 | 0.0 | 0.0 | 0.00 | 0.00 | 0.00 | 40 | 1015.9 |
| 20260905133828 | 86 | 144 | 0.0 | 0.0 | 0.00 | 0.00 | 0.00 | 40 | 1015.9 |
| 20260905132756 | 87 | 89 | 0.0 | 0.0 | 0.00 | 0.00 | 0.00 | 41 | 1015.8 |
| 20260905132257 | 87 | 93 | 0.0 | 0.0 | 0.00 | 0.00 | 0.00 | 41 | 1015.8 |
| 20260905131752 | 87 | 164 | 0.0 | 1.0 | 0.00 | 0.00 | 0.00 | 41 | 1015.9 |
| 20260905131254 | 87 | 200 | 0.0 | 1.0 | 0.00 | 0.00 | 0.00 | 42 | 1015.9 |
| 20260905130754 | 86 | 195 | 0.0 | 1.0 | 0.00 | 0.00 | 0.00 | 42 | 1015.9 |
| 20260905130250 | 86 | 78 | 0.0 | 0.0 | 0.00 | 0.00 | 0.00 | 43 | 1015.9 |
| 20260905125751 | 86 | 100 | 0.0 | 0.0 | 0.00 | 0.00 | 0.00 | 43 | 1015.9 |
| 20260905125249 | 86 | 37 | 0.0 | 0.0 | 0.00 | 0.00 | 0.00 | 42 | 1015.9 |
| 20260905124746 | 86 | 110 | 0.0 | 5.0 | 0.00 | 0.00 | 0.00 | 42 | 1016.0 |
| 20260905124240 | 86 | 69 | 0.0 | 5.0 | 0.00 | 0.00 | 0.00 | 41 | 1016.1 |
| 20260905123944 | 85 | 149 | 0.0 | 6.0 | 0.00 | 0.00 | 0.00 | 43 | 1016.1 |
| 20260905123803 | 85 | 48 | 0.0 | 6.0 | 0.00 | 0.00 | 0.00 | 40 | 1016.1 |
| 20260905122937 | 85 | 41 | 0.0 | 0.0 | 0.00 | 0.00 | 0.00 | 41 | 1016.3 |
| 20260905122758 | 85 | 106 | 1.0 | 5.0 | 0.00 | 0.00 | 0.00 | 42 | 1016.3 |
| 20260905121857 | 86 | 75 | 0.0 | 4.0 | 0.00 | 0.00 | 0.00 | 43 | 1016.2 |
| 20260905121755 | 85 | 47 | 0.0 | 4.0 | 0.00 | 0.00 | 0.00 | 42 | 1016.2 |
| 20260905120734 | 85 | 85 | 0.0 | 0.0 | 0.00 | 0.00 | 0.00 | 45 | 1016.3 |
| 20260905120233 | 85 | 35 | 0.0 | 0.0 | 0.00 | 0.00 | 0.00 | 45 | 1016.3 |
| 20260905115729 | 85 | 73 | 0.0 | 0.0 | 0.00 | 0.00 | 0.00 | 46 | 1016.3 |
| 20260905115227 | 85 | 59 | 0.0 | 0.0 | 0.00 | 0.00 | 0.00 | 46 | 1016.5 |
| 20260905114851 | 84 | 66 | 0.0 | 0.0 | 0.00 | 0.00 | 0.00 | 47 | 1016.3 |
| 20260905114742 | 85 | 25 | 0.0 | 0.0 | 0.00 | 0.00 | 0.00 | 46 | 1016.4 |
| 20260905113724 | 84 | 83 | 0.0 | 0.0 | 0.00 | 0.00 | 0.00 | 46 | 1016.5 |
| 20260905113223 | 85 | 87 | 0.0 | 1.0 | 0.00 | 0.00 | 0.00 | 46 | 1016.4 |
| 20260905112725 | 85 | 114 | 0.0 | 1.0 | 0.00 | 0.00 | 0.00 | 46 | 1016.5 |
| 20260905112356 | 85 | 90 | 0.0 | 0.0 | 0.00 | 0.00 | 0.00 | 47 | 1016.6 |
| 20260905112241 | 85 | 76 | 0.0 | 0.0 | 0.00 | 0.00 | 0.00 | 46 | 1016.6 |
| 20260905111224 | 84 | 32 | 0.0 | 0.0 | 0.00 | 0.00 | 0.00 | 47 | 1016.5 |
| 20260905110720 | 84 | 30 | 0.0 | 0.0 | 0.00 | 0.00 | 0.00 | 48 | 1016.5 |
| 20260905110217 | 84 | 34 | 0.0 | 0.0 | 0.00 | 0.00 | 0.00 | 49 | 1016.6 |
| 20260905105718 | 83 | 31 | 0.0 | 0.0 | 0.00 | 0.00 | 0.00 | 48 | 1016.5 |
| 20260905105450 | 83 | 31 | 0.0 | 0.0 | 0.00 | 0.00 | 0.00 | 47 | 1016.7 |
| 20260905105442 | 83 | 34 | 0.0 | 2.0 | 0.00 | 0.00 | 0.00 | 48 | 1016.7 |
| 20260905105256 | 83 | 31 | 0.0 | 0.0 | 0.00 | 0.00 | 0.00 | 46 | 1016.6 |
| 20260905103708 | 83 | 147 | 0.0 | 2.0 | 0.00 | 0.00 | 0.00 | 51 | 1016.7 |
| 20260905103208 | 83 | 141 | 0.0 | 1.0 | 0.00 | 0.00 | 0.00 | 52 | 1016.7 |
| 20260905102707 | 83 | 78 | 0.0 | 1.0 | 0.00 | 0.00 | 0.00 | 55 | 1016.6 |
| 20260905102206 | 82 | 190 | 0.0 | 1.0 | 0.00 | 0.00 | 0.00 | 55 | 1016.7 |
| 20260905101708 | 82 | 68 | 0.0 | 0.0 | 0.00 | 0.00 | 0.00 | 53 | 1016.8 |
| 20260905101206 | 82 | 85 | 0.0 | 1.0 | 0.00 | 0.00 | 0.00 | 56 | 1016.8 |
| 20260905100828 | 81 | 51 | 0.0 | 1.0 | 0.00 | 0.00 | 0.00 | 54 | 1016.7 |
| 20260905100717 | 81 | 55 | 0.0 | 1.0 | 0.00 | 0.00 | 0.00 | 54 | 1016.7 |
| 20260905095855 | 80 | 59 | 0.0 | 0.0 | 0.00 | 0.00 | 0.00 | 60 | 1016.8 |
| 20260905095845 | 80 | 54 | 0.0 | 0.0 | 0.00 | 0.00 | 0.00 | 61 | 1016.8 |
| 20260905095739 | 81 | 97 | 0.0 | 1.0 | 0.00 | 0.00 | 0.00 | 59 | 1016.8 |
| 20260905094154 | 80 | 54 | 0.0 | 0.0 | 0.00 | 0.00 | 0.00 | 61 | 1016.7 |
| 20260905093656 | 80 | 48 | 0.0 | 0.0 | 0.00 | 0.00 | 0.00 | 60 | 1016.7 |
| 20260905093155 | 80 | 44 | 0.0 | 0.0 | 0.00 | 0.00 | 0.00 | 61 | 1016.8 |
| 20260905092653 | 80 | 44 | 0.0 | 0.0 | 0.00 | 0.00 | 0.00 | 61 | 1016.8 |
| 20260905092146 | 79 | 37 | 0.0 | 0.0 | 0.00 | 0.00 | 0.00 | 61 | 1016.8 |
| 20260905091649 | 79 | 62 | 0.0 | 0.0 | 0.00 | 0.00 | 0.00 | 61 | 1016.7 |
| 20260905091146 | 79 | 75 | 0.0 | 0.0 | 0.00 | 0.00 | 0.00 | 61 | 1016.6 |
| 20260905090846 | 79 | 351 | 0.0 | 0.0 | 0.00 | 0.00 | 0.00 | 63 | 1016.6 |
| 20260905090711 | 80 | 44 | 0.0 | 0.0 | 0.00 | 0.00 | 0.00 | 63 | 1016.7 |
| 20260905085642 | 79 | 347 | 0.0 | 0.0 | 0.00 | 0.00 | 0.00 | 65 | 1016.6 |
| 20260905085138 | 79 | 324 | 0.0 | 0.0 | 0.00 | 0.00 | 0.00 | 65 | 1016.7 |
| 20260905084640 | 79 | 329 | 0.0 | 0.0 | 0.00 | 0.00 | 0.00 | 67 | 1016.5 |
| 20260905084325 | 78 | 23 | 0.0 | 0.0 | 0.00 | 0.00 | 0.00 | 67 | 1016.3 |
| 20260905084205 | 78 | 18 | 0.0 | 0.0 | 0.00 | 0.00 | 0.00 | 68 | 1016.4 |
| 20260905083134 | 78 | 34 | 0.0 | 0.0 | 0.00 | 0.00 | 0.00 | 68 | 1016.4 |
| 20260905082633 | 78 | 334 | 0.0 | 3.0 | 0.00 | 0.00 | 0.00 | 68 | 1016.4 |
| 20260905082133 | 78 | 351 | 0.0 | 5.0 | 0.00 | 0.00 | 0.00 | 68 | 1016.3 |
| 20260905081632 | 78 | 336 | 2.0 | 5.0 | 0.00 | 0.00 | 0.00 | 68 | 1016.4 |
| 20260905081131 | 78 | 340 | 0.0 | 4.0 | 0.00 | 0.00 | 0.00 | 68 | 1016.4 |
| 20260905080629 | 78 | 334 | 0.0 | 0.0 | 0.00 | 0.00 | 0.00 | 68 | 1016.3 |
| 20260905080131 | 78 | 16 | 0.0 | 0.0 | 0.00 | 0.00 | 0.00 | 68 | 1016.2 |
| 20260905075629 | 78 | 16 | 0.0 | 0.0 | 0.00 | 0.00 | 0.00 | 68 | 1016.2 |
| 20260905075129 | 77 | 25 | 0.0 | 0.0 | 0.00 | 0.00 | 0.00 | 68 | 1016.1 |
| 20260905074630 | 77 | 27 | 0.0 | 4.0 | 0.00 | 0.00 | 0.00 | 69 | 1016.1 |
| 20260905074129 | 77 | 17 | 0.0 | 4.0 | 0.00 | 0.00 | 0.00 | 69 | 1016.1 |
| 20260905073625 | 77 | 350 | 0.0 | 4.0 | 0.00 | 0.00 | 0.00 | 70 | 1016.0 |